User: anonymous   Login
Location: Milton
(43.5183°N, 79.8775°W)
Time: 08:14:21
(UTC+00:00)
Language:

IRIDIUM 126 - Orbit

View from above orbital plane
View from above orbital plane
View from above satellite
View from above satellite

Ground track
Ground track

The orbit data is extracted from the following two-line orbital elements,

1 42809U 17039G   23339.57623664  .00000412  00000-0  13991-3 0  9995
2 42809  86.3988  20.0468 0002170 103.9875 256.1562 14.34217998337435
Epoch (UTC): 05 December 2023 13:49:46
Eccentricity: 0.0002170
inclination: 86.3988°
perigee height: 776 km
apogee height: 779 km
right ascension of ascending node: 20.0468°
argument of perigee: 103.9875°
revolutions per day: 14.34217998
mean anomaly at epoch: 256.1562°
orbit number at epoch: 33743

The dashed part of the orbit path shows where the satellite is in the earth's shadow,  

DLR